Location: Bottenau
(48.5138°N, 8.0462°E)
Time: 06:37:16
(UTC+00:00)

ATLAS 3B R/B - Pass Details

Date: 28 July 2021
Orbit: 1001 x 1194 km, 63.8° (Epoch: 09 September)

Event Time Altitude Azimuth Distance (km) Brightness Sun altitude
Rises 19:37:29 0° 319° (NW) 3,888 7.7 -4.6°
Reaches altitude 10° 19:40:06 10° 321° (NW) 2,957 6.6 -4.9°
Maximum altitude 19:47:11 78° 47° (NE) 1,164 2.9 -5.9°
Drops below altitude 10° 19:54:34 10° 134° (SE) 3,074 4.4 -6.8°
Enters shadow 19:55:07 - 135° (SE) 3,272 4.6 -6.9°
